Preview of NWS' New Version of Forecast
This preview is not operational and should not be used for support decisions.

Regional Weather Roundup (RWR)

Issued by National Weather Service (NWS)

                            
000
ASUS45 KBOU 220410
RWRCO 

WEATHER ROUNDUP FOR COLORADO
NATIONAL WEATHER SERVICE DENVER/BOULDER CO
1000 PM MDT SUN JUL 21 2019

NOTE: "FAIR" INDICATES FEW OR NO CLOUDS BELOW 12000 FEET WITH NO
SIGNIFICANT WEATHER AND/OR OBSTRUCTIONS TO VISIBILITY.

COZ001>005-013-030-031-220500-
...NORTHWEST COLORADO...
  
CITY           SKY/WX    TMP DP  RH WIND       PRES   REMARKS
CRAIG          FAIR      65  46  50 SE3       30.23R                  
HAYDEN         FAIR      71  48  43 SE12      30.29R                  
MEEKER         FAIR      68  45  43 E6        30.23R                  
RANGELY        FAIR      78  37  23 NE6       30.10R                  
RABBIT EARS PA NOT AVBL                                               
STEAMBOAT SPGS FAIR      73  50  44 NE21G31   30.29R                  
WALDEN         NOT AVBL                                               
$$

COZ006>008-011-220500-
...WEST CENTRAL VALLEYS...
  
CITY           SKY/WX    TMP DP  RH WIND       PRES   REMARKS
GRAND JUNCTION FAIR      77  23  13 NE6       30.04R                  
MONTROSE       FAIR      77  38  24 SE7       30.16R                  
EAGLE          FAIR      70  45  40 N3        30.29R                  
RIFLE          FAIR      75  42  30 SE7       30.14R                  
DELTA          FAIR      82  33  17 NE7       30.09R                  
NUCLA          FAIR      79  23  12 SE8       30.18R                  
$$

COZ017>023-064>068-220500-
...SOUTHWEST COLORADO...
  
CITY           SKY/WX    TMP DP  RH WIND       PRES   REMARKS
DURANGO        FAIR      71  38  29 CALM      30.23R                  
CORTEZ         FAIR      68  40  35 E7        30.16R                  
PAGOSA SPRINGS FAIR      65  38  36 CALM      30.33S                  
TELLURIDE      FAIR      64  30  27 SE9       30.48R                  
WOLF CREEK PAS NOT AVBL                                               
$$

COZ009-010-012-014-032>034-037-058>063-220500-
...CENTRAL COLORADO...
  
CITY           SKY/WX    TMP DP  RH WIND       PRES   REMARKS
ASPEN          FAIR      62  35  36 SW9       30.36R                  
BUENA VISTA    MOCLDY    67  46  45 NE14G21   30.45R                  
COPPER MTN     MOCLDY    59  45  58 E8        30.76R                  
BERTHOUD PASS  MOCLDY    41  30  65 MISG      30.80R                  
COTTONWOOD PAS NOT AVBL                                               
GUNNISON       FAIR      69  43  38 NE10      30.35R                  
GRANBY         NOT AVBL                                               
KREMMLING      FAIR      68  46  45 E12       30.39R                  
LEADVILLE      LGT RAIN  53  50  89 S5        30.58R                  
SALIDA         MOCLDY    72  53  51 E5        30.47R                  
SUNLIGHT       FAIR      55  32  41 NE6       30.65R                  
WILKERSON PASS RAIN      48  46  93 E10       30.76R                  
$$

COZ069>075-220500-
...SAN LUIS VALLEY/SANGRE DE CRISTO MOUNTAINS...
  
CITY           SKY/WX    TMP DP  RH WIND       PRES   REMARKS
ALAMOSA        FAIR      70  46  42 E17G29    30.33R                  
DEL NORTE      FAIR      66  45  46 N5        30.40S                  
LA VETA PASS   NOT AVBL                                               
SAGUACHE       FAIR      66  43  42 CALM      30.38R                  
$$

COZ035-036-038>040-220500-
...NORTHERN COLORADO FRONT RANGE...
  
CITY           SKY/WX    TMP DP  RH WIND       PRES   REMARKS
DENVER INTL AP MOCLDY    70  54  56 SW9       30.35R                  
AURORA         MOCLDY    68  55  62 S7        30.36R                  
FRONT RANGE AP FAIR      70  55  60 SW5       30.36R                  
ERIE MUNI ARPT LGT RAIN  73  56  55 E8        30.37R                  
BOULDER MUN AP LGT RAIN  68  63  83 SW3       30.35R                  
CENTENNIAL     CLOUDY    64  60  87 S10       30.37R THUNDER          
BROOMFIELD     TSTM      72  57  60 E8        30.36R                  
FORT COLLINS   MOCLDY    71  59  65 E5        30.34R                  
LONGMONT       CLOUDY    73  60  62 NW5       30.35R                  
$$

COZ041-046-047-076>085-087-088-220500-
...PIKES PEAK/PALMER DIVIDE AND SOUTHERN FOOTHILLS...
  
CITY           SKY/WX    TMP DP  RH WIND       PRES   REMARKS
COLO. SPRINGS  RAIN      60  57  89 N8        30.42F FOG              
A. F. ACADEMY  LGT RAIN  58  58  99 SE3       30.42R                  
SCHRIEVER AFB  NOT AVBL                                               
CHEYENNE MTN   NOT AVBL                                               
ELLICOTT       LGT RAIN N/A N/A N/A W12       30.36R                  
FALCON         CLOUDY    59  55  85 SW15      30.42F                  
FORT CARSON    TSTM      61  57  88 N10       30.35F                  
LIMON          FAIR      63  58  83 E5        30.34R                  
MONUMENT HILL  CLOUDY    55  54  94 S14       30.44R                  
CANON CITY     TSTM      63  57  82 N14G32    30.37R                  
WALSENBURG     NOT AVBL                                               
TRINIDAD       FAIR      64  57  78 S12G21    30.29R                  
$$

COZ042>045-048>051-090-091-220500-
...NORTHEAST COLORADO...
  
CITY           SKY/WX    TMP DP  RH WIND       PRES   REMARKS
GREELEY ARPT   MOCLDY    72  59  63 E8        30.31R                  
AKRON          MOCLDY    67  60  78 E8        30.31R                  
BURLINGTON     FAIR      68  63  84 E10       30.27R                  
WRAY           FAIR      68  63  83 E3        30.27R                  
YUMA           FAIR      63  43  48 E5        30.28S                  
STERLING       CLOUDY    72  61  68 E5        30.27R                  
HOLYOKE        MOCLDY    70  63  78 NE12      30.28R                  
FORT MORGAN    NOT AVBL                                               
$$

COZ086-089-092>099-220500-
...SOUTHEAST COLORADO...
  
CITY           SKY/WX    TMP DP  RH WIND       PRES   REMARKS
PUEBLO         FAIR      76  49  38 NE17G29   30.26R                  
LA JUNTA       FAIR      76  64  66 E14       30.25R                  
LAMAR          MOCLDY    75  64  68 E10       30.20R                  
SPRINGFIELD      N/A     72  61  68 NE10      30.22R                  
$$